Weather in Parnyy

Russia / Voronezh Oblast     51°36′50″N   38°18′23″E
temp.,
°C
wind,
m/s
gust,
m/s
humid.,
%
clouds,
%
prec.,
mm/h
press.,
hPa
HPBL,
m
26 february, fri
fri2600:00+2w59100100 0.2 1020192
03:00+2wnw51199100 0.3 1020237
06:00+2w410100100 0.1 1019201
09:00+3w511100100 0.1 1017190
12:00+4w715100100 0.0 1016336
15:00+3w81699100 0.1 1014501
18:00+3w71498100 0.3 1013385
21:00+2w61496100 0.4 1012437
27 february, sat
sat2700:00+1w61295100 0.0 1011455
03:00+1w51194100 0.0 1011434
06:00+1w51294100 0.0 1010473
09:00+1w61292100 0.0 1010490
12:00+1wnw61098100 0.1 1010550
15:00+1wnw61194100 0.2 1010539
18:00+1nw6109799 0.1 1011463
21:000nw499898 0.2 1012370
28 february, sun
sun2800:000nw4898100 0.1 1013426
03:00−1nw489799 0.3 1015386
06:00−2n279693 0.1 1016436
09:00−3nnw598991 0.2 1017599
12:00−2nnw488495 0.0 1018611
15:000nw368794 0.1 1018654
18:00−1nnw359798 0.1 1018273
21:00−2nnw259796 0.3 1020170
1 march, mon
mon100:00−2nnw369781 0.1 1021261
03:00−3nne229780 0.3 102356
06:00−4nne229682 0.0 102452
09:00−4n229269 0.1 1026146
12:00−2nnw238351 0.0 1028441
15:00−1wnw238165 0.0 1028550
18:00−2wnw468589 0.0 1028594
21:00−2w488791 0.0 1028476
2 march, tue
tue200:00−2w5109068 0.0 1027423
03:00−1w6139083 0.0 1025569
06:000w71393100 0.0 1023483
09:00+1wnw71490100 0.0 1021627
12:00+1nw71292100 0.0 1020760
15:00+2nw71391100 0.0 1019728
18:00+1nw61391100 0.0 1019786
21:00+1nw61391100 0.1 1020881